Location: Eboldshausen
(51.7766°N, 10.0050°E)
Time: 07:00:00
(UTC+00:00)

Geosat - Pass Details

Date: 15 November 2025
Orbit: 757 x 760 km, 108.0° (Epoch: 16 December)

Event Time Altitude Azimuth Distance (km) Brightness Sun altitude
Exits shadow 17:41:42 21° 142° (SE) 1,653 5.4 -20.2°
Maximum altitude 17:45:04 82° 57° (ENE) 774 3.9 -20.8°
Drops below altitude 10° 17:50:06 10° 330° (NNW) 2,302 6.8 -21.5°
Sets 17:52:23 0° 330° (NNW) 3,232 7.6 -21.9°
